Petersburg, AK

3:37 AM AKDT on July 26, 2017 (GMT -0800)
Johnson Petersburg

Weather History for PAPG - January, 2015

Change the Weather History Date:

Wednesday, January 7, 2015

  Actual Average Record
Temperature  
Mean Temperature 37 °F -  
Max Temperature 41 °F 31 °F 55 °F (2001)
Min Temperature 33 °F 23 °F 4 °F (1991)
Degree Days  
Heating Degree Days 28    
Moisture  
Dew Point 34 °F    
Average Humidity 88    
Maximum Humidity 93    
Minimum Humidity 81    
Precipitation  
Precipitation 0.00 in - - ()
Sea Level Pressure  
Sea Level Pressure 30.20 in    
Wind  
Wind Speed 5 mph (SW)    
Max Wind Speed 8 mph    
Max Gust Speed -    
Visibility 5 miles    
Events Rain    
Averages and records for this station are not official NWS values.
T = Trace of Precipitation, MM = Missing Value Source: NWS Daily Summary

Daily Weather History Graph

Daily Weather History Graph

Search for Another Location

Airport or City:

Trip Planner

Search our weather history database for the weather conditions in past years. The results will help you decide how hot, cold, wet, or windy it might be!

Date:

Astronomy

Jan. 07, 2015 Rise Set
Actual Time 8:25 AM AKST 3:31 PM AKST
Civil Twilight 7:37 AM AKST 4:18 PM AKST
Nautical Twilight 6:48 AM AKST 5:08 PM AKST
Astronomical Twilight 6:02 AM AKST 5:54 PM AKST
Moon 7:01 PM AKST (1/7) 9:06 AM AKST (1/7)
Length of Visible Light 8h 40m
Length of Day
7h 05m
Waning Gibbous, 93% of the Moon is Illuminated
Jan 7
Waning Gibbous
Jan 13
Last Quarter
Jan 20
New
Jan 26
First Quarter
Feb 3
Full

Hourly Weather History & Observations

Time (AKST) Temp. Windchill Dew Point Humidity Pressure Visibility Wind Dir Wind Speed Gust Speed Precip Events Conditions
12:55 AM 41.0 °F 38.0 °F 35.6 °F 81% 30.01 in 6.0 mi ENE 4.6 mph - N/A   Overcast
1:41 AM 41.0 °F 38.0 °F 35.6 °F 81% 30.01 in 6.0 mi South 4.6 mph - N/A   Overcast
4:57 AM 39.2 °F 37.0 °F 35.6 °F 87% 30.04 in 9.0 mi NW 3.5 mph - N/A   Overcast
6:00 AM 39.2 °F 37.0 °F 35.6 °F 87% 30.06 in 5.0 mi South 3.5 mph - N/A   Light Drizzle
6:56 AM 39.2 °F - 35.6 °F 87% 30.08 in 5.0 mi Calm Calm - N/A Rain Light Rain
7:56 AM 39.2 °F 33.6 °F 35.6 °F 87% 30.12 in 5.0 mi SSW 8.1 mph - N/A Rain Light Rain
8:56 AM 37.4 °F 33.8 °F 35.6 °F 93% 30.16 in 4.0 mi SW 4.6 mph - N/A Rain Light Rain
9:56 AM 39.2 °F 35.0 °F 35.6 °F 87% 30.19 in 4.0 mi SW 5.8 mph - N/A Rain Light Rain
10:56 AM 37.4 °F 32.1 °F 35.6 °F 93% 30.22 in 5.0 mi SW 6.9 mph - N/A Rain Light Rain
11:56 AM 37.4 °F 34.9 °F 35.6 °F 93% 30.23 in 5.0 mi SW 3.5 mph - N/A Rain Light Rain
12:56 PM 39.2 °F 37.0 °F 35.6 °F 87% 30.24 in 4.0 mi SW 3.5 mph - N/A Rain Light Rain
1:56 PM 37.4 °F 33.8 °F 35.6 °F 93% 30.25 in 3.0 mi WSW 4.6 mph - N/A Rain Light Rain
2:56 PM 37.4 °F 33.8 °F 35.6 °F 93% 30.26 in 5.0 mi SW 4.6 mph - N/A Rain Light Rain
3:56 PM 37.4 °F 32.8 °F 33.8 °F 87% 30.27 in 5.0 mi SSW 5.8 mph - N/A Rain Light Rain
4:56 PM 35.6 °F 29.2 °F 33.8 °F 93% 30.29 in 5.0 mi SSW 8.1 mph - N/A Rain Light Rain
5:56 PM 35.6 °F 30.7 °F 32.0 °F 87% 30.30 in 5.0 mi SSW 5.8 mph - N/A Rain Light Rain
6:56 PM 35.6 °F - 32.0 °F 87% 30.31 in 5.0 mi Calm Calm - N/A Rain Light Rain
7:56 PM 33.8 °F 27.7 °F 30.2 °F 87% 30.32 in 5.0 mi SSW 6.9 mph - N/A Rain Light Rain
8:56 PM 35.6 °F 29.2 °F 30.2 °F 81% 30.34 in 7.0 mi SSW 8.1 mph - N/A Rain Light Rain
9:56 PM 35.6 °F 32.8 °F 32.0 °F 87% 30.34 in 7.0 mi SW 3.5 mph - N/A Rain Light Rain